User: anonymous   Login
Location: Brno
(49.2000°N, 16.6330°E)
Time: 00:33:17
(UTC+02:00)
Language:

Cosmos 2227 - Orbit

View from above orbital plane
View from above orbital plane
View from above satellite
View from above satellite

Ground track
Ground track

The orbit data is extracted from the following two-line orbital elements,

1 22284U 92093A   15149.77223523  .00000185  00000-0  12411-3 0  9998
2 22284 070.9792 006.4563 0019906 230.3192 129.6174 14.13237723156761
Epoch (UTC): 29 May 2015 18:32:01
Eccentricity: 0.0019906
inclination: 70.9792°
perigee height: 834 km
apogee height: 863 km
right ascension of ascending node: 6.4563°
argument of perigee: 230.3192°
revolutions per day: 14.13237723
mean anomaly at epoch: 129.6174°
orbit number at epoch: 15676

The dashed part of the orbit path shows where the satellite is in the earth's shadow,  

DLR